Location: Unnamed
(51.5169°N, 0.1311°W)
Time: 05:45:42
(UTC+01:00)

Vanguard 1 - Pass Details

Date: 10 August 2024
Orbit: 649 x 3825 km, 34.2° (Epoch: 16 September)

Event Time Altitude Azimuth Distance (km) Brightness Sun altitude
Rises 23:28:44 0° 220° (SW) 4,413 13.2 -20.0°
Reaches altitude 10° 23:31:40 10° 209° (SSW) 3,794 12.7 -20.2°
Maximum altitude 23:40:23 30° 152° (SSE) 3,428 12.2 -20.7°
Drops below altitude 10° 23:54:07 10° 101° (E) 6,080 13.8 -21.5°
Sets 00:00:30 0° 93° (E) 7,516 14.4 -21.8°
